Time,TemperatureF,DewpointF,PressureIn,WindDirection,WindDirectionDegrees,WindSpeedMPH,WindSpeedGustMPH,Humidity,HourlyPrecipIn,Conditions,Clouds,dailyrainin,SolarRadiationWatts/m^2,SoftwareType,DateUTC
2013-01-23 00:02:00,51.0,12.0,30.08,South,178,22.0,27.0,21,0.00,,,0.00,0.000000,,2013-01-23 08:02:00,
2013-01-23 00:12:00,51.0,12.0,30.08,South,178,22.0,27.0,21,0.00,,,0.00,0.000000,,2013-01-23 08:12:00,
2013-01-23 00:43:00,50.0,15.0,30.07,South,181,22.0,30.0,24,0.00,,,0.00,0.000000,,2013-01-23 08:43:00,
2013-01-23 00:53:00,50.0,15.0,30.07,South,181,22.0,30.0,24,0.00,,,0.00,0.000000,,2013-01-23 08:53:00,
2013-01-23 01:02:00,50.0,15.0,30.07,South,181,22.0,30.0,24,0.00,,,0.00,0.000000,,2013-01-23 09:02:00,
2013-01-23 01:12:00,50.0,15.0,30.07,South,181,22.0,30.0,24,0.00,,,0.00,0.000000,,2013-01-23 09:12:00,
2013-01-23 01:43:00,49.0,16.0,30.05,South,180,21.0,29.0,26,0.00,,,0.00,0.000000,,2013-01-23 09:43:00,
2013-01-23 01:53:00,49.0,16.0,30.05,South,180,21.0,29.0,26,0.00,,,0.00,0.000000,,2013-01-23 09:53:00,
2013-01-23 02:02:00,49.0,16.0,30.05,South,180,21.0,29.0,26,0.00,,,0.00,0.000000,,2013-01-23 10:02:00,
2013-01-23 02:12:00,49.0,16.0,30.05,South,180,21.0,29.0,26,0.00,,,0.00,0.000000,,2013-01-23 10:12:00,
2013-01-23 02:33:00,50.0,12.0,30.04,South,176,25.0,31.0,21,0.00,,,0.00,0.000000,,2013-01-23 10:33:00,
2013-01-23 02:43:00,50.0,12.0,30.04,South,176,25.0,31.0,21,0.00,,,0.00,0.000000,,2013-01-23 10:43:00,
2013-01-23 02:53:00,50.0,12.0,30.04,South,176,25.0,31.0,21,0.00,,,0.00,0.000000,,2013-01-23 10:53:00,
2013-01-23 03:02:00,50.0,12.0,30.04,South,176,25.0,31.0,21,0.00,,,0.00,0.000000,,2013-01-23 11:02:00,
2013-01-23 03:11:00,50.0,12.0,30.04,South,176,25.0,31.0,21,0.00,,,0.00,0.000000,,2013-01-23 11:11:00,
2013-01-23 03:34:00,51.0,11.0,30.04,South,173,23.0,31.0,20,0.00,,,-99.99,0.000000,,2013-01-23 11:34:00,
2013-01-23 03:43:00,51.0,11.0,30.04,South,173,23.0,31.0,20,0.00,,,-99.99,0.000000,,2013-01-23 11:43:00,
2013-01-23 03:53:00,51.0,11.0,30.04,South,173,23.0,31.0,20,0.00,,,-99.99,0.000000,,2013-01-23 11:53:00,
2013-01-23 04:03:00,51.0,11.0,30.04,South,173,23.0,31.0,20,0.00,,,-99.99,0.000000,,2013-01-23 12:03:00,
2013-01-23 04:12:00,51.0,11.0,30.04,South,173,23.0,31.0,20,0.00,,,-99.99,0.000000,,2013-01-23 12:12:00,
2013-01-23 04:33:00,50.0,7.0,30.02,South,173,20.0,29.0,17,0.00,,,0.00,0.000000,,2013-01-23 12:33:00,
2013-01-23 04:43:00,50.0,7.0,30.02,South,173,20.0,29.0,17,0.00,,,0.00,0.000000,,2013-01-23 12:43:00,
2013-01-23 04:53:00,50.0,7.0,30.02,South,173,20.0,29.0,17,0.00,,,0.00,0.000000,,2013-01-23 12:53:00,
2013-01-23 05:03:00,50.0,7.0,30.02,South,173,20.0,29.0,17,0.00,,,0.00,0.000000,,2013-01-23 13:03:00,
2013-01-23 05:12:00,50.0,7.0,30.02,South,173,20.0,29.0,17,0.00,,,0.00,0.000000,,2013-01-23 13:12:00,
2013-01-23 05:33:00,52.0,10.0,30.01,South,176,23.0,27.0,18,0.00,,,0.00,0.000000,,2013-01-23 13:33:00,
2013-01-23 05:43:00,52.0,10.0,30.01,South,176,23.0,27.0,18,0.00,,,0.00,0.000000,,2013-01-23 13:43:00,
2013-01-23 05:53:00,52.0,10.0,30.01,South,176,23.0,27.0,18,0.00,,,0.00,0.000000,,2013-01-23 13:53:00,
2013-01-23 06:02:00,52.0,10.0,30.01,South,176,23.0,27.0,18,0.00,,,0.00,0.000000,,2013-01-23 14:02:00,
2013-01-23 06:12:00,52.0,10.0,30.01,South,176,23.0,27.0,18,0.00,,,0.00,0.000000,,2013-01-23 14:12:00,
2013-01-23 06:43:00,54.0,6.0,30.00,South,178,21.0,28.0,14,0.00,,,0.00,0.000000,,2013-01-23 14:43:00,
2013-01-23 06:53:00,54.0,6.0,30.00,South,178,21.0,28.0,14,0.00,,,0.00,0.000000,,2013-01-23 14:53:00,
2013-01-23 07:02:00,54.0,6.0,30.00,South,178,21.0,28.0,14,0.00,,,0.00,0.000000,,2013-01-23 15:02:00,
2013-01-23 07:12:00,54.0,6.0,30.00,South,178,21.0,28.0,14,0.00,,,0.00,0.000000,,2013-01-23 15:12:00,
2013-01-23 07:33:00,52.0,4.0,30.01,SSE,166,21.0,33.0,14,0.00,,,0.00,0.000000,,2013-01-23 15:33:00,
2013-01-23 07:43:00,52.0,4.0,30.01,SSE,166,21.0,33.0,14,0.00,,,0.00,0.000000,,2013-01-23 15:43:00,
2013-01-23 07:53:00,52.0,4.0,30.01,SSE,166,21.0,33.0,14,0.00,,,0.00,0.000000,,2013-01-23 15:53:00,
2013-01-23 08:02:00,52.0,4.0,30.01,SSE,166,21.0,33.0,14,0.00,,,0.00,0.000000,,2013-01-23 16:02:00,
2013-01-23 08:12:00,52.0,4.0,30.01,SSE,166,21.0,33.0,14,0.00,,,0.00,0.000000,,2013-01-23 16:12:00,
2013-01-23 08:43:00,54.0,9.0,30.01,South,171,25.0,33.0,16,0.00,,,0.00,0.000000,,2013-01-23 16:43:00,
2013-01-23 08:53:00,54.0,9.0,30.01,South,171,25.0,33.0,16,0.00,,,0.00,0.000000,,2013-01-23 16:53:00,
2013-01-23 09:03:00,54.0,9.0,30.01,South,171,25.0,33.0,16,0.00,,,0.00,0.000000,,2013-01-23 17:03:00,
2013-01-23 09:12:00,54.0,9.0,30.01,South,171,25.0,33.0,16,0.00,,,0.00,0.000000,,2013-01-23 17:12:00,
2013-01-23 09:43:00,48.0,10.0,30.01,South,186,23.0,39.0,21,0.00,,,0.00,3.000000,,2013-01-23 17:43:00,
2013-01-23 09:53:00,48.0,10.0,30.01,South,186,23.0,39.0,21,0.00,,,0.00,3.000000,,2013-01-23 17:53:00,
2013-01-23 10:03:00,48.0,10.0,30.01,South,186,23.0,39.0,21,0.00,,,0.00,3.000000,,2013-01-23 18:03:00,
2013-01-23 10:12:00,48.0,10.0,30.01,South,186,23.0,39.0,21,0.00,,,0.00,3.000000,,2013-01-23 18:12:00,
2013-01-23 10:44:00,50.0,13.0,30.04,South,181,28.0,40.0,22,0.00,,,0.00,32.000000,,2013-01-23 18:44:00,
2013-01-23 10:53:00,50.0,13.0,30.04,South,181,28.0,40.0,22,0.00,,,0.00,32.000000,,2013-01-23 18:53:00,
2013-01-23 11:02:00,50.0,13.0,30.04,South,181,28.0,40.0,22,0.00,,,0.00,32.000000,,2013-01-23 19:02:00,
2013-01-23 11:12:00,50.0,13.0,30.04,South,181,28.0,40.0,22,0.00,,,0.00,32.000000,,2013-01-23 19:12:00,
2013-01-23 11:43:00,51.0,14.0,30.05,South,186,28.0,42.0,22,0.00,,,0.00,73.000000,,2013-01-23 19:43:00,
2013-01-23 11:53:00,51.0,14.0,30.05,South,186,28.0,42.0,22,0.00,,,0.00,73.000000,,2013-01-23 19:53:00,
2013-01-23 12:03:00,51.0,14.0,30.05,South,186,28.0,42.0,22,0.00,,,0.00,73.000000,,2013-01-23 20:03:00,
2013-01-23 12:12:00,51.0,14.0,30.05,South,186,28.0,42.0,22,0.00,,,0.00,73.000000,,2013-01-23 20:12:00,
2013-01-23 12:43:00,49.0,15.0,30.06,South,187,28.0,42.0,25,0.00,,,0.00,102.000000,,2013-01-23 20:43:00,
2013-01-23 12:53:00,49.0,15.0,30.06,South,187,28.0,42.0,25,0.00,,,0.00,102.000000,,2013-01-23 20:53:00,
2013-01-23 13:43:00,48.0,29.0,30.04,South,188,23.0,37.0,47,0.00,,,0.00,107.000000,,2013-01-23 21:43:00,
2013-01-23 13:53:00,48.0,29.0,30.04,South,188,23.0,37.0,47,0.00,,,0.00,107.000000,,2013-01-23 21:53:00,
2013-01-23 14:02:00,48.0,29.0,30.04,South,188,23.0,37.0,47,0.00,,,0.00,107.000000,,2013-01-23 22:02:00,
2013-01-23 14:12:00,48.0,29.0,30.04,South,188,23.0,37.0,47,0.00,,,0.00,107.000000,,2013-01-23 22:12:00,
2013-01-23 15:03:00,44.0,42.0,30.01,South,174,26.0,-999.0,91,0.00,,,0.00,86.000000,,2013-01-23 23:03:00,
2013-01-23 15:12:00,44.0,42.0,30.01,South,174,26.0,-999.0,91,0.00,,,0.00,86.000000,,2013-01-23 23:12:00,
2013-01-23 15:43:00,47.0,43.0,30.01,SSE,163,31.0,35.0,86,0.00,,,0.00,42.000000,,2013-01-23 23:43:00,
2013-01-23 15:53:00,47.0,43.0,30.01,SSE,163,31.0,35.0,86,0.00,,,0.00,42.000000,,2013-01-23 23:53:00,
2013-01-23 16:02:00,47.0,43.0,30.01,SSE,163,31.0,35.0,86,0.00,,,0.00,42.000000,,2013-01-24 00:02:00,
2013-01-23 16:12:00,47.0,43.0,30.01,SSE,163,31.0,35.0,86,0.00,,,0.00,42.000000,,2013-01-24 00:12:00,
2013-01-23 16:33:00,46.0,41.0,30.04,SSE,154,24.0,34.0,84,0.00,,,0.00,46.000000,,2013-01-24 00:33:00,
2013-01-23 16:43:00,46.0,41.0,30.04,SSE,154,24.0,34.0,84,0.00,,,0.00,46.000000,,2013-01-24 00:43:00,
2013-01-23 16:53:00,46.0,41.0,30.04,SSE,154,24.0,34.0,84,0.00,,,0.00,46.000000,,2013-01-24 00:53:00,
2013-01-23 17:02:00,46.0,41.0,30.04,SSE,154,24.0,34.0,84,0.00,,,0.00,46.000000,,2013-01-24 01:02:00,
2013-01-23 17:12:00,46.0,41.0,30.04,SSE,154,24.0,34.0,84,0.00,,,0.00,46.000000,,2013-01-24 01:12:00,
2013-01-23 17:43:00,47.0,39.0,30.05,SSE,162,12.0,38.0,75,0.00,,,0.00,28.000000,,2013-01-24 01:43:00,
2013-01-23 17:52:00,47.0,39.0,30.05,SSE,162,12.0,38.0,75,0.00,,,0.00,28.000000,,2013-01-24 01:52:00,
2013-01-23 18:02:00,47.0,39.0,30.05,SSE,162,12.0,38.0,75,0.00,,,0.00,28.000000,,2013-01-24 02:02:00,
2013-01-23 18:12:00,47.0,39.0,30.05,SSE,162,12.0,38.0,75,0.00,,,0.00,28.000000,,2013-01-24 02:12:00,
2013-01-23 18:33:00,48.0,34.0,30.05,SSE,165,11.0,19.0,57,0.00,,,0.00,17.000000,,2013-01-24 02:33:00,
2013-01-23 18:42:00,48.0,34.0,30.05,SSE,165,11.0,19.0,57,0.00,,,0.00,17.000000,,2013-01-24 02:42:00,
2013-01-23 18:52:00,48.0,34.0,30.05,SSE,165,11.0,19.0,57,0.00,,,0.00,17.000000,,2013-01-24 02:52:00,
2013-01-23 19:02:00,48.0,34.0,30.05,SSE,165,11.0,19.0,57,0.00,,,0.00,17.000000,,2013-01-24 03:02:00,
2013-01-23 19:12:00,48.0,34.0,30.05,SSE,165,11.0,19.0,57,0.00,,,0.00,17.000000,,2013-01-24 03:12:00,
2013-01-23 19:43:00,46.0,37.0,30.06,South,190,17.0,24.0,72,0.00,,,0.00,1.000000,,2013-01-24 03:43:00,
2013-01-23 19:52:00,46.0,37.0,30.06,South,190,17.0,24.0,72,0.00,,,0.00,1.000000,,2013-01-24 03:52:00,
2013-01-23 20:02:00,46.0,37.0,30.06,South,190,17.0,24.0,72,0.00,,,0.00,1.000000,,2013-01-24 04:02:00,
2013-01-23 20:12:00,46.0,37.0,30.06,South,190,17.0,24.0,72,0.00,,,0.00,1.000000,,2013-01-24 04:12:00,
2013-01-23 20:43:00,47.0,35.0,30.06,SSE,159,19.0,26.0,62,0.00,,,0.00,0.000000,,2013-01-24 04:43:00,
2013-01-23 20:53:00,47.0,35.0,30.06,SSE,159,19.0,26.0,62,0.00,,,0.00,0.000000,,2013-01-24 04:53:00,
2013-01-23 21:03:00,47.0,35.0,30.06,SSE,159,19.0,26.0,62,0.00,,,0.00,0.000000,,2013-01-24 05:03:00,
2013-01-23 21:12:00,47.0,35.0,30.06,SSE,159,19.0,26.0,62,0.00,,,0.00,0.000000,,2013-01-24 05:12:00,
2013-01-23 21:33:00,45.0,38.0,30.08,SSE,153,23.0,28.0,76,0.01,,,0.01,0.000000,,2013-01-24 05:33:00,
2013-01-23 21:43:00,45.0,38.0,30.08,SSE,153,23.0,28.0,76,0.01,,,0.01,0.000000,,2013-01-24 05:43:00,
2013-01-23 21:53:00,45.0,38.0,30.08,SSE,153,23.0,28.0,76,0.01,,,0.01,0.000000,,2013-01-24 05:53:00,
2013-01-23 22:02:00,45.0,38.0,30.08,SSE,153,23.0,28.0,76,0.01,,,0.01,0.000000,,2013-01-24 06:02:00,
2013-01-23 22:12:00,45.0,38.0,30.08,SSE,153,23.0,28.0,76,0.01,,,0.01,0.000000,,2013-01-24 06:12:00,
2013-01-23 22:42:00,44.0,37.0,30.07,SE,129,9.0,35.0,75,0.00,,,0.01,0.000000,,2013-01-24 06:42:00,
2013-01-23 22:52:00,44.0,37.0,30.07,SE,129,9.0,35.0,75,0.00,,,0.01,0.000000,,2013-01-24 06:52:00,
2013-01-23 23:02:00,44.0,37.0,30.07,SE,129,9.0,35.0,75,0.00,,,0.01,0.000000,,2013-01-24 07:02:00,
2013-01-23 23:12:00,44.0,37.0,30.07,SE,129,9.0,35.0,75,0.00,,,0.01,0.000000,,2013-01-24 07:12:00,
2013-01-23 23:33:00,45.0,40.0,30.07,SE,145,18.0,21.0,81,0.01,,,-99.99,0.000000,,2013-01-24 07:33:00,
2013-01-23 23:43:00,45.0,40.0,30.07,SE,145,18.0,21.0,81,0.01,,,-99.99,0.000000,,2013-01-24 07:43:00,
2013-01-23 23:53:00,45.0,40.0,30.07,SE,145,18.0,21.0,81,0.01,,,-99.99,0.000000,,2013-01-24 07:53:00,